Time,TemperatureF,DewpointF,PressureIn,WindDirection,WindDirectionDegrees,WindSpeedMPH,WindSpeedGustMPH,Humidity,HourlyPrecipIn,Conditions,Clouds,dailyrainin,SoftwareType,DateUTC
2013-03-19 00:00:00,31.8,31.5,29.84,ESE,105,0.0,5.0,99,0.00,,---,0.00,VWS V14.01,2013-03-19 04:00:00,
2013-03-19 00:05:00,31.9,31.6,29.84,East,97,3.0,3.0,99,0.00,,---,0.00,VWS V14.01,2013-03-19 04:05:00,
2013-03-19 00:10:00,31.9,31.6,29.84,East,90,4.0,5.0,99,0.00,,---,0.00,VWS V14.01,2013-03-19 04:10:00,
2013-03-19 00:15:00,32.1,31.9,29.83,East,90,0.0,5.0,99,0.00,,---,0.00,VWS V14.01,2013-03-19 04:15:00,
2013-03-19 00:20:00,32.1,31.9,29.83,East,101,3.0,3.0,99,0.00,,---,0.00,VWS V14.01,2013-03-19 04:20:00,
2013-03-19 00:25:00,32.1,31.9,29.83,East,98,4.0,4.0,99,0.00,,---,0.00,VWS V14.01,2013-03-19 04:25:00,
2013-03-19 00:30:00,32.1,31.9,29.82,ESE,104,2.0,5.0,99,0.00,,---,0.00,VWS V14.01,2013-03-19 04:30:00,
2013-03-19 00:35:00,32.2,32.0,29.82,ESE,119,2.0,7.0,99,0.00,,---,0.00,VWS V14.01,2013-03-19 04:35:00,
2013-03-19 00:40:00,32.1,31.9,29.82,ESE,106,0.0,5.0,99,0.00,,---,0.00,VWS V14.01,2013-03-19 04:40:00,
2013-03-19 00:45:00,32.1,31.9,29.81,East,93,2.0,6.0,99,0.00,,---,0.00,VWS V14.01,2013-03-19 04:45:00,
2013-03-19 00:50:00,32.1,31.9,29.81,ESE,112,6.0,7.0,99,0.00,,---,0.00,VWS V14.01,2013-03-19 04:50:00,
2013-03-19 00:55:00,32.1,31.9,29.81,East,93,2.0,8.0,99,0.00,,---,0.00,VWS V14.01,2013-03-19 04:55:00,
2013-03-19 01:00:00,32.1,31.9,29.81,East,91,2.0,4.0,99,0.00,,---,0.00,VWS V14.01,2013-03-19 05:00:00,
2013-03-19 01:05:00,32.1,31.9,29.81,East,98,4.0,5.0,99,0.00,,---,0.00,VWS V14.01,2013-03-19 05:05:00,
2013-03-19 01:10:00,32.1,31.9,29.81,East,98,4.0,4.0,99,0.00,,---,0.00,VWS V14.01,2013-03-19 05:10:00,
2013-03-19 01:15:00,32.1,31.9,29.80,East,99,0.0,4.0,99,0.00,,---,0.00,VWS V14.01,2013-03-19 05:15:00,
2013-03-19 01:20:00,32.1,31.9,29.80,East,101,1.0,3.0,99,0.00,,---,0.00,VWS V14.01,2013-03-19 05:20:00,
2013-03-19 01:25:00,32.1,31.9,29.80,ESE,102,2.0,3.0,99,0.00,,---,0.00,VWS V14.01,2013-03-19 05:25:00,
2013-03-19 01:30:00,32.1,31.9,29.80,ESE,102,0.0,2.0,99,0.00,,---,0.00,VWS V14.01,2013-03-19 05:30:00,
2013-03-19 01:35:00,32.1,31.9,29.80,ESE,103,2.0,4.0,99,0.00,,---,0.00,VWS V14.01,2013-03-19 05:35:00,
2013-03-19 01:40:00,32.1,31.9,29.80,East,86,2.0,4.0,99,0.00,,---,0.00,VWS V14.01,2013-03-19 05:40:00,
2013-03-19 01:45:00,31.9,31.6,29.78,ESE,123,0.0,4.0,99,0.00,,---,0.00,VWS V14.01,2013-03-19 05:45:00,
2013-03-19 01:50:00,31.9,31.6,29.78,ESE,122,0.0,3.0,99,0.00,,---,0.00,VWS V14.01,2013-03-19 05:50:00,
2013-03-19 01:55:00,32.1,31.9,29.78,ESE,103,0.0,3.0,99,0.00,,---,0.00,VWS V14.01,2013-03-19 05:55:00,
2013-03-19 02:00:00,32.1,31.9,29.78,ESE,103,0.0,0.0,99,0.00,,---,0.00,VWS V14.01,2013-03-19 06:00:00,
2013-03-19 02:05:00,32.1,31.9,29.78,ESE,103,0.0,0.0,99,0.00,,---,0.00,VWS V14.01,2013-03-19 06:05:00,
2013-03-19 02:10:00,32.1,31.9,29.78,ESE,103,0.0,0.0,99,0.00,,---,0.00,VWS V14.01,2013-03-19 06:10:00,
2013-03-19 02:15:00,32.2,32.0,29.78,ESE,103,0.0,0.0,99,0.00,,---,0.00,VWS V14.01,2013-03-19 06:15:00,
2013-03-19 02:20:00,32.2,32.0,29.78,ESE,103,0.0,0.0,99,0.00,,---,0.00,VWS V14.01,2013-03-19 06:20:00,
2013-03-19 02:25:00,32.2,32.0,29.78,ESE,103,0.0,0.0,99,0.00,,---,0.00,VWS V14.01,2013-03-19 06:25:00,
2013-03-19 02:30:00,32.2,32.0,29.78,ESE,103,0.0,0.0,99,0.00,,---,0.00,VWS V14.01,2013-03-19 06:30:00,
2013-03-19 02:35:00,32.1,31.9,29.78,ESE,103,0.0,0.0,99,0.00,,---,0.00,VWS V14.01,2013-03-19 06:35:00,
2013-03-19 02:40:00,32.1,31.9,29.78,ESE,103,0.0,0.0,99,0.00,,---,0.00,VWS V14.01,2013-03-19 06:40:00,
2013-03-19 02:45:00,31.8,31.5,29.77,ESE,103,0.0,0.0,99,0.00,,---,0.00,VWS V14.01,2013-03-19 06:45:00,
2013-03-19 02:50:00,31.6,31.4,29.77,ESE,103,0.0,0.0,99,0.00,,---,0.00,VWS V14.01,2013-03-19 06:50:00,
2013-03-19 02:55:00,31.6,31.4,29.77,ESE,103,0.0,0.0,99,0.00,,---,0.00,VWS V14.01,2013-03-19 06:55:00,
2013-03-19 03:00:00,31.5,31.2,29.76,ESE,103,0.0,0.0,99,0.00,,---,0.00,VWS V14.01,2013-03-19 07:00:00,
2013-03-19 03:05:00,31.5,31.2,29.76,ESE,103,0.0,0.0,99,0.00,,---,0.00,VWS V14.01,2013-03-19 07:05:00,
2013-03-19 03:10:00,31.5,31.2,29.76,ESE,103,0.0,0.0,99,0.00,,---,0.00,VWS V14.01,2013-03-19 07:10:00,
2013-03-19 03:15:00,31.5,31.2,29.76,ESE,103,0.0,0.0,99,0.00,,---,0.00,VWS V14.01,2013-03-19 07:15:00,
2013-03-19 03:20:00,31.5,31.2,29.76,ESE,103,0.0,0.0,99,0.00,,---,0.00,VWS V14.01,2013-03-19 07:20:00,
2013-03-19 03:25:00,31.5,31.2,29.76,ESE,103,0.0,0.0,99,0.00,,---,0.00,VWS V14.01,2013-03-19 07:25:00,
2013-03-19 03:30:00,31.5,31.2,29.75,ESE,103,0.0,0.0,99,0.00,,---,0.00,VWS V14.01,2013-03-19 07:30:00,
2013-03-19 03:35:00,31.5,31.2,29.75,ESE,103,0.0,0.0,99,0.00,,---,0.00,VWS V14.01,2013-03-19 07:35:00,
2013-03-19 03:40:00,31.5,31.2,29.75,ESE,103,0.0,0.0,99,0.00,,---,0.00,VWS V14.01,2013-03-19 07:40:00,
2013-03-19 03:45:00,31.5,31.2,29.74,ESE,103,0.0,0.0,99,0.00,,---,0.00,VWS V14.01,2013-03-19 07:45:00,
2013-03-19 03:50:00,31.5,31.2,29.74,ESE,103,0.0,0.0,99,0.00,,---,0.00,VWS V14.01,2013-03-19 07:50:00,
2013-03-19 03:55:00,31.6,31.4,29.74,ESE,103,0.0,0.0,99,0.00,,---,0.00,VWS V14.01,2013-03-19 07:55:00,
2013-03-19 04:00:00,31.6,31.4,29.73,ESE,103,0.0,0.0,99,0.00,,---,0.00,VWS V14.01,2013-03-19 08:00:00,
2013-03-19 04:05:00,31.6,31.4,29.73,ESE,103,0.0,1.0,99,0.00,,---,0.00,VWS V14.01,2013-03-19 08:05:00,
2013-03-19 04:10:00,31.6,31.4,29.73,ESE,103,0.0,0.0,99,0.00,,---,0.00,VWS V14.01,2013-03-19 08:10:00,
2013-03-19 04:15:00,31.6,31.4,29.73,ESE,103,0.0,0.0,99,0.00,,---,0.00,VWS V14.01,2013-03-19 08:15:00,
2013-03-19 04:20:00,31.6,31.4,29.73,ESE,103,0.0,0.0,99,0.00,,---,0.00,VWS V14.01,2013-03-19 08:20:00,
2013-03-19 04:25:00,31.6,31.4,29.73,ESE,103,0.0,0.0,99,0.00,,---,0.00,VWS V14.01,2013-03-19 08:25:00,
2013-03-19 04:30:00,31.6,31.4,29.73,ESE,103,0.0,0.0,99,0.00,,---,0.00,VWS V14.01,2013-03-19 08:30:00,
2013-03-19 04:35:00,31.6,31.4,29.73,ESE,103,0.0,0.0,99,0.00,,---,0.00,VWS V14.01,2013-03-19 08:35:00,
2013-03-19 04:40:00,31.5,31.2,29.73,ESE,103,0.0,0.0,99,0.00,,---,0.00,VWS V14.01,2013-03-19 08:40:00,
2013-03-19 04:45:00,31.5,31.2,29.72,ESE,103,0.0,0.0,99,0.00,,---,0.00,VWS V14.01,2013-03-19 08:45:00,
2013-03-19 04:50:00,31.5,31.2,29.72,ESE,103,0.0,0.0,99,0.00,,---,0.00,VWS V14.01,2013-03-19 08:50:00,
2013-03-19 04:55:00,31.5,31.2,29.72,ESE,103,0.0,0.0,99,0.00,,---,0.00,VWS V14.01,2013-03-19 08:55:00,
2013-03-19 05:00:00,31.5,31.2,29.71,ESE,103,0.0,0.0,99,0.00,,---,0.00,VWS V14.01,2013-03-19 09:00:00,
2013-03-19 05:05:00,31.5,31.2,29.71,ESE,103,0.0,0.0,99,0.00,,---,0.00,VWS V14.01,2013-03-19 09:05:00,
2013-03-19 05:10:00,31.5,31.2,29.71,ESE,103,0.0,0.0,99,0.00,,---,0.00,VWS V14.01,2013-03-19 09:10:00,
2013-03-19 05:15:00,31.6,31.4,29.73,ESE,103,0.0,0.0,99,0.00,,---,0.00,VWS V14.01,2013-03-19 09:15:00,
2013-03-19 05:20:00,31.6,31.4,29.73,ESE,103,0.0,1.0,99,0.00,,---,0.00,VWS V14.01,2013-03-19 09:20:00,
2013-03-19 05:25:00,31.6,31.4,29.73,ESE,103,0.0,1.0,99,0.00,,---,0.00,VWS V14.01,2013-03-19 09:25:00,
2013-03-19 05:30:00,31.5,31.2,29.72,ESE,103,0.0,0.0,99,0.00,,---,0.00,VWS V14.01,2013-03-19 09:30:00,
2013-03-19 05:35:00,31.5,31.2,29.72,ESE,103,0.0,0.0,99,0.00,,---,0.00,VWS V14.01,2013-03-19 09:35:00,
2013-03-19 05:40:00,31.5,31.2,29.72,ESE,103,0.0,0.0,99,0.00,,---,0.00,VWS V14.01,2013-03-19 09:40:00,
2013-03-19 05:45:00,31.5,31.2,29.71,ESE,103,0.0,0.0,99,0.00,,---,0.00,VWS V14.01,2013-03-19 09:45:00,
2013-03-19 05:50:00,31.3,31.0,29.71,ESE,103,0.0,0.0,99,0.00,,---,0.00,VWS V14.01,2013-03-19 09:50:00,
2013-03-19 05:55:00,31.3,31.0,29.71,ESE,103,0.0,0.0,99,0.00,,---,0.00,VWS V14.01,2013-03-19 09:55:00,
2013-03-19 06:00:00,31.3,31.0,29.71,ESE,103,0.0,0.0,99,0.00,,---,0.00,VWS V14.01,2013-03-19 10:00:00,
2013-03-19 06:05:00,31.3,31.3,29.71,ESE,103,0.0,0.0,100,0.00,,---,0.00,VWS V14.01,2013-03-19 10:05:00,
2013-03-19 06:10:00,31.3,31.3,29.71,ESE,103,0.0,0.0,100,0.00,,---,0.00,VWS V14.01,2013-03-19 10:10:00,
2013-03-19 06:15:00,31.5,31.5,29.71,ESE,103,0.0,0.0,100,0.00,,---,0.00,VWS V14.01,2013-03-19 10:15:00,
2013-03-19 06:20:00,31.5,31.5,29.71,ESE,103,0.0,0.0,100,0.00,,---,0.00,VWS V14.01,2013-03-19 10:20:00,
2013-03-19 06:25:00,31.5,31.5,29.71,ESE,103,0.0,0.0,100,0.00,,---,0.00,VWS V14.01,2013-03-19 10:25:00,
2013-03-19 06:30:00,31.5,31.5,29.71,ESE,103,0.0,0.0,100,0.00,,---,0.00,VWS V14.01,2013-03-19 10:30:00,
2013-03-19 06:35:00,31.5,31.5,29.71,ESE,103,0.0,0.0,100,0.00,,---,0.00,VWS V14.01,2013-03-19 10:35:00,
2013-03-19 06:40:00,31.5,31.5,29.71,ESE,103,0.0,0.0,100,0.00,,---,0.00,VWS V14.01,2013-03-19 10:40:00,
2013-03-19 06:45:00,31.5,31.5,29.72,ESE,103,0.0,0.0,100,0.00,,---,0.00,VWS V14.01,2013-03-19 10:45:00,
2013-03-19 06:50:00,31.5,31.5,29.72,ESE,103,0.0,0.0,100,0.00,,---,0.00,VWS V14.01,2013-03-19 10:50:00,
2013-03-19 06:55:00,31.5,31.5,29.72,ESE,103,0.0,0.0,100,0.00,,---,0.00,VWS V14.01,2013-03-19 10:55:00,
2013-03-19 07:00:00,31.5,31.5,29.75,ESE,103,1.0,2.0,100,0.00,,---,0.00,VWS V14.01,2013-03-19 11:00:00,
2013-03-19 07:05:00,31.5,31.5,29.75,ESE,103,0.0,0.0,100,0.00,,---,0.00,VWS V14.01,2013-03-19 11:05:00,
2013-03-19 07:10:00,31.5,31.5,29.75,ESE,103,0.0,3.0,100,0.00,,---,0.00,VWS V14.01,2013-03-19 11:10:00,
2013-03-19 07:15:00,31.5,31.5,29.76,ESE,103,0.0,0.0,100,0.00,,---,0.00,VWS V14.01,2013-03-19 11:15:00,
2013-03-19 07:20:00,31.3,31.3,29.76,ESE,103,0.0,2.0,100,0.00,,---,0.00,VWS V14.01,2013-03-19 11:20:00,
2013-03-19 07:24:00,31.3,31.3,29.76,WNW,298,2.0,3.0,100,0.00,,---,0.00,VWS V14.01,2013-03-19 11:24:00,
2013-03-19 07:30:00,31.3,31.3,29.76,WNW,300,1.0,4.0,100,0.00,,---,0.00,VWS V14.01,2013-03-19 11:30:00,
2013-03-19 07:35:00,31.5,31.5,29.76,WNW,300,1.0,3.0,100,0.00,,---,0.00,VWS V14.01,2013-03-19 11:35:00,
2013-03-19 07:39:00,31.6,31.6,29.76,WNW,301,2.0,3.0,100,0.00,,---,0.00,VWS V14.01,2013-03-19 11:39:00,
2013-03-19 07:44:00,31.6,31.6,29.76,WNW,297,1.0,4.0,100,0.00,,---,0.00,VWS V14.01,2013-03-19 11:44:00,
2013-03-19 07:49:00,31.8,31.8,29.76,NW,310,0.0,2.0,100,0.00,,---,0.00,VWS V14.01,2013-03-19 11:49:00,
2013-03-19 07:54:00,31.8,31.8,29.76,NW,310,2.0,2.0,100,0.00,,---,0.00,VWS V14.01,2013-03-19 11:54:00,
2013-03-19 07:59:00,31.8,31.8,29.76,NW,310,0.0,1.0,100,0.00,,---,0.00,VWS V14.01,2013-03-19 11:59:00,
2013-03-19 08:04:00,31.8,31.8,29.76,North,360,0.0,4.0,100,0.00,,---,0.00,VWS V14.01,2013-03-19 12:04:00,
2013-03-19 08:09:00,31.8,31.8,29.76,North,360,0.0,2.0,100,0.00,,---,0.00,VWS V14.01,2013-03-19 12:09:00,
2013-03-19 08:14:00,31.9,31.9,29.76,North,360,0.0,0.0,100,0.00,,---,0.00,VWS V14.01,2013-03-19 12:14:00,
2013-03-19 08:19:00,32.1,32.1,29.76,NW,312,1.0,2.0,100,0.00,,---,0.00,VWS V14.01,2013-03-19 12:19:00,
2013-03-19 08:24:00,32.5,32.5,29.76,NW,312,0.0,3.0,100,0.00,,---,0.00,VWS V14.01,2013-03-19 12:24:00,
2013-03-19 08:29:00,32.8,32.8,29.76,NW,312,0.0,2.0,100,0.00,,---,0.00,VWS V14.01,2013-03-19 12:29:00,
2013-03-19 08:34:00,33.1,33.1,29.76,NW,321,0.0,1.0,100,0.00,,---,0.00,VWS V14.01,2013-03-19 12:34:00,
2013-03-19 08:39:00,33.4,33.4,29.76,NW,321,0.0,0.0,100,0.00,,---,0.00,VWS V14.01,2013-03-19 12:39:00,
2013-03-19 08:44:00,33.8,33.8,29.75,NNE,21,4.0,4.0,100,0.00,,---,0.00,VWS V14.01,2013-03-19 12:44:00,
2013-03-19 08:49:00,34.4,34.4,29.75,North,355,0.0,2.0,100,0.00,,---,0.00,VWS V14.01,2013-03-19 12:49:00,
2013-03-19 08:54:00,34.7,34.5,29.75,North,355,0.0,0.0,99,0.00,,---,0.00,VWS V14.01,2013-03-19 12:54:00,
2013-03-19 08:59:00,34.9,34.7,29.76,North,355,0.0,0.0,99,0.00,,---,0.00,VWS V14.01,2013-03-19 12:59:00,
2013-03-19 09:04:00,35.2,34.7,29.76,North,355,0.0,0.0,98,0.00,,---,0.00,VWS V14.01,2013-03-19 13:04:00,
2013-03-19 09:09:00,35.5,35.0,29.76,North,355,0.0,0.0,98,0.00,,---,0.00,VWS V14.01,2013-03-19 13:09:00,
2013-03-19 09:14:00,35.9,35.4,29.77,North,355,0.0,0.0,98,0.00,,---,0.00,VWS V14.01,2013-03-19 13:14:00,
2013-03-19 09:19:00,36.3,35.5,29.77,North,355,0.0,1.0,97,0.00,,---,0.00,VWS V14.01,2013-03-19 13:19:00,
2013-03-19 09:24:00,36.9,35.9,29.77,North,360,0.0,2.0,96,0.00,,---,0.00,VWS V14.01,2013-03-19 13:24:00,
2013-03-19 09:29:00,37.3,36.0,29.76,North,9,2.0,4.0,95,0.00,,---,0.00,VWS V14.01,2013-03-19 13:29:00,
2013-03-19 09:34:00,36.9,35.1,29.76,NW,323,0.0,6.0,93,0.01,,---,0.01,VWS V14.01,2013-03-19 13:34:00,
2013-03-19 09:39:00,36.6,34.5,29.76,NNW,331,0.0,6.0,92,0.01,,---,0.01,VWS V14.01,2013-03-19 13:39:00,
2013-03-19 09:44:00,36.9,34.8,29.78,NW,307,3.0,6.0,92,0.01,,---,0.01,VWS V14.01,2013-03-19 13:44:00,
2013-03-19 09:49:00,37.5,35.1,29.78,NW,315,0.0,4.0,91,0.02,,---,0.02,VWS V14.01,2013-03-19 13:49:00,
2013-03-19 09:54:00,37.8,34.9,29.78,NW,315,0.0,5.0,89,0.02,,---,0.02,VWS V14.01,2013-03-19 13:54:00,
2013-03-19 09:59:00,38.3,34.8,29.78,NW,306,4.0,5.0,87,0.02,,---,0.02,VWS V14.01,2013-03-19 13:59:00,
2013-03-19 10:04:00,38.9,34.5,29.78,NW,304,3.0,7.0,84,0.03,,---,0.03,VWS V14.01,2013-03-19 14:04:00,
2013-03-19 10:09:00,39.3,34.3,29.78,NW,304,0.0,6.0,82,0.03,,---,0.03,VWS V14.01,2013-03-19 14:09:00,
2013-03-19 10:14:00,39.8,34.1,29.77,North,10,3.0,10.0,80,0.04,,---,0.04,VWS V14.01,2013-03-19 14:14:00,
2013-03-19 10:19:00,40.1,34.4,29.77,NW,308,3.0,4.0,80,0.04,,---,0.04,VWS V14.01,2013-03-19 14:19:00,
2013-03-19 10:24:00,40.1,34.1,29.77,WNW,284,3.0,12.0,79,0.05,,---,0.05,VWS V14.01,2013-03-19 14:24:00,
2013-03-19 10:29:00,40.2,33.2,29.76,NNW,327,7.0,9.0,76,0.05,,---,0.05,VWS V14.01,2013-03-19 14:29:00,
2013-03-19 10:34:00,40.2,33.6,29.76,WNW,290,4.0,7.0,77,0.06,,---,0.06,VWS V14.01,2013-03-19 14:34:00,
2013-03-19 10:39:00,40.2,32.9,29.76,NW,306,1.0,5.0,75,0.05,,---,0.06,VWS V14.01,2013-03-19 14:39:00,
2013-03-19 10:44:00,40.5,32.5,29.76,NW,316,0.0,5.0,73,0.06,,---,0.07,VWS V14.01,2013-03-19 14:44:00,
2013-03-19 10:49:00,40.5,32.2,29.76,WNW,294,2.0,10.0,72,0.06,,---,0.07,VWS V14.01,2013-03-19 14:49:00,
2013-03-19 10:54:00,40.6,32.6,29.76,West,273,5.0,7.0,73,0.06,,---,0.08,VWS V14.01,2013-03-19 14:54:00,
2013-03-19 10:59:00,40.8,31.1,29.75,WNW,298,3.0,9.0,68,0.06,,---,0.08,VWS V14.01,2013-03-19 14:59:00,
2013-03-19 11:04:00,40.8,31.4,29.75,North,355,2.0,12.0,69,0.07,,---,0.09,VWS V14.01,2013-03-19 15:04:00,
2013-03-19 11:09:00,40.9,30.4,29.75,North,9,4.0,7.0,66,0.06,,---,0.09,VWS V14.01,2013-03-19 15:09:00,
2013-03-19 11:14:00,41.3,31.9,29.74,West,274,9.0,11.0,69,0.07,,---,0.10,VWS V14.01,2013-03-19 15:14:00,
2013-03-19 11:19:00,41.3,31.2,29.74,West,270,3.0,11.0,67,0.07,,---,0.11,VWS V14.01,2013-03-19 15:19:00,
2013-03-19 11:24:00,41.3,30.1,29.74,NW,322,2.0,10.0,64,0.07,,---,0.11,VWS V14.01,2013-03-19 15:24:00,
2013-03-19 11:29:00,41.6,31.1,29.74,WNW,295,5.0,11.0,66,0.07,,---,0.12,VWS V14.01,2013-03-19 15:29:00,
2013-03-19 11:34:00,41.9,32.1,29.74,West,271,3.0,9.0,68,0.07,,---,0.12,VWS V14.01,2013-03-19 15:34:00,
2013-03-19 11:39:00,42.1,31.2,29.74,West,267,7.0,10.0,65,0.07,,---,0.13,VWS V14.01,2013-03-19 15:39:00,
2013-03-19 11:44:00,42.1,32.0,29.74,West,265,7.0,12.0,67,0.08,,---,0.14,VWS V14.01,2013-03-19 15:44:00,
2013-03-19 11:49:00,42.2,32.4,29.74,NW,306,5.0,11.0,68,0.07,,---,0.14,VWS V14.01,2013-03-19 15:49:00,
2013-03-19 11:54:00,42.9,32.3,29.74,NNW,345,4.0,8.0,66,0.08,,---,0.15,VWS V14.01,2013-03-19 15:54:00,
2013-03-19 11:59:00,42.5,31.2,29.73,NW,304,3.0,11.0,64,0.07,,---,0.15,VWS V14.01,2013-03-19 15:59:00,
2013-03-19 12:04:00,42.6,30.1,29.73,NW,309,2.0,11.0,61,0.08,,---,0.16,VWS V14.01,2013-03-19 16:04:00,
2013-03-19 12:09:00,43.1,32.9,29.73,West,270,6.0,11.0,67,0.08,,---,0.17,VWS V14.01,2013-03-19 16:09:00,
2013-03-19 12:14:00,42.8,31.1,29.73,West,269,5.0,9.0,63,0.07,,---,0.17,VWS V14.01,2013-03-19 16:14:00,
2013-03-19 12:19:00,43.2,31.5,29.73,WNW,295,5.0,8.0,63,0.08,,---,0.18,VWS V14.01,2013-03-19 16:19:00,
2013-03-19 12:24:00,43.1,32.9,29.73,West,264,2.0,5.0,67,0.07,,---,0.18,VWS V14.01,2013-03-19 16:24:00,
2013-03-19 12:29:00,43.8,32.8,29.71,WNW,283,4.0,7.0,65,0.08,,---,0.19,VWS V14.01,2013-03-19 16:29:00,
2013-03-19 12:34:00,43.9,32.1,29.71,West,273,4.0,8.0,63,0.07,,---,0.19,VWS V14.01,2013-03-19 16:34:00,
2013-03-19 12:39:00,44.5,33.1,29.71,WNW,286,2.0,11.0,64,0.07,,---,0.20,VWS V14.01,2013-03-19 16:39:00,
2013-03-19 12:44:00,45.4,33.2,29.72,West,277,3.0,6.0,62,0.08,,---,0.21,VWS V14.01,2013-03-19 16:44:00,
2013-03-19 12:49:00,45.5,32.0,29.72,WNW,294,10.0,11.0,59,0.07,,---,0.21,VWS V14.01,2013-03-19 16:49:00,
2013-03-19 12:54:00,45.5,32.0,29.72,NNW,336,6.0,10.0,59,0.08,,---,0.22,VWS V14.01,2013-03-19 16:54:00,
2013-03-19 12:59:00,46.1,32.6,29.72,NW,315,7.0,13.0,59,0.08,,---,0.23,VWS V14.01,2013-03-19 16:59:00,
2013-03-19 13:04:00,46.0,33.3,29.72,NW,304,3.0,10.0,61,0.07,,---,0.23,VWS V14.01,2013-03-19 17:04:00,
2013-03-19 13:09:00,46.0,32.5,29.72,WNW,284,3.0,13.0,59,0.08,,---,0.24,VWS V14.01,2013-03-19 17:09:00,
2013-03-19 13:14:00,46.0,31.6,29.71,SW,223,6.0,12.0,57,0.07,,---,0.24,VWS V14.01,2013-03-19 17:14:00,
2013-03-19 13:19:00,46.7,32.7,29.71,West,264,10.0,13.0,58,0.08,,---,0.25,VWS V14.01,2013-03-19 17:19:00,
2013-03-19 13:24:00,47.0,33.4,29.71,NW,313,5.0,10.0,59,0.07,,---,0.25,VWS V14.01,2013-03-19 17:24:00,
2013-03-19 13:29:00,47.6,33.6,29.71,WNW,284,4.0,8.0,58,0.08,,---,0.26,VWS V14.01,2013-03-19 17:29:00,
2013-03-19 13:34:00,47.7,33.2,29.71,WNW,288,4.0,14.0,57,0.07,,---,0.26,VWS V14.01,2013-03-19 17:34:00,
2013-03-19 13:39:00,48.2,31.4,29.71,WSW,242,3.0,11.0,52,0.07,,---,0.27,VWS V14.01,2013-03-19 17:39:00,
2013-03-19 13:44:00,48.5,31.2,29.70,WNW,301,12.0,15.0,51,0.07,,---,0.27,VWS V14.01,2013-03-19 17:44:00,
2013-03-19 13:49:00,48.0,32.2,29.70,West,278,4.0,10.0,54,0.07,,---,0.28,VWS V14.01,2013-03-19 17:49:00,
2013-03-19 13:54:00,48.6,33.6,29.70,West,277,8.0,12.0,56,0.07,,---,0.28,VWS V14.01,2013-03-19 17:54:00,
2013-03-19 13:59:00,48.6,32.3,29.70,West,277,5.0,12.0,53,0.06,,---,0.28,VWS V14.01,2013-03-19 17:59:00,
2013-03-19 14:04:00,48.8,33.8,29.70,NW,311,5.0,12.0,56,0.06,,---,0.29,VWS V14.01,2013-03-19 18:04:00,
2013-03-19 14:09:00,49.6,32.7,29.70,West,281,7.0,14.0,52,0.06,,---,0.29,VWS V14.01,2013-03-19 18:09:00,
2013-03-19 14:14:00,49.8,32.4,29.69,NW,304,6.0,15.0,51,0.06,,---,0.30,VWS V14.01,2013-03-19 18:14:00,
2013-03-19 14:19:00,50.5,28.3,29.69,WSW,252,7.0,16.0,42,0.06,,---,0.30,VWS V14.01,2013-03-19 18:19:00,
2013-03-19 14:24:00,51.1,27.0,29.69,West,280,13.0,19.0,39,0.05,,---,0.30,VWS V14.01,2013-03-19 18:24:00,
2013-03-19 14:29:00,51.0,27.5,29.69,West,273,11.0,19.0,40,0.06,,---,0.31,VWS V14.01,2013-03-19 18:29:00,
2013-03-19 14:34:00,51.1,27.0,29.69,NW,308,7.0,21.0,39,0.05,,---,0.31,VWS V14.01,2013-03-19 18:34:00,
2013-03-19 14:39:00,51.4,24.7,29.69,WNW,285,4.0,20.0,35,0.05,,---,0.31,VWS V14.01,2013-03-19 18:39:00,
2013-03-19 14:44:00,51.6,25.5,29.68,West,259,8.0,17.0,36,0.04,,---,0.31,VWS V14.01,2013-03-19 18:44:00,
2013-03-19 14:49:00,51.6,26.8,29.68,West,271,14.0,22.0,38,0.05,,---,0.32,VWS V14.01,2013-03-19 18:49:00,
2013-03-19 14:54:00,51.6,24.9,29.68,WNW,293,13.0,22.0,35,0.04,,---,0.32,VWS V14.01,2013-03-19 18:54:00,
2013-03-19 14:59:00,51.9,22.2,29.67,West,277,6.0,21.0,31,0.04,,---,0.32,VWS V14.01,2013-03-19 18:59:00,
2013-03-19 15:04:00,51.9,21.5,29.67,West,267,3.0,22.0,30,0.03,,---,0.32,VWS V14.01,2013-03-19 19:04:00,
2013-03-19 15:09:00,52.2,25.4,29.67,WNW,292,11.0,19.0,35,0.03,,---,0.32,VWS V14.01,2013-03-19 19:09:00,
2013-03-19 15:14:00,50.5,23.9,29.68,WNW,292,7.0,18.0,35,0.03,,---,0.32,VWS V14.01,2013-03-19 19:14:00,
2013-03-19 15:19:00,49.9,24.0,29.68,WNW,288,7.0,16.0,36,0.02,,---,0.32,VWS V14.01,2013-03-19 19:19:00,
2013-03-19 15:24:00,50.4,25.1,29.68,WNW,301,10.0,16.0,37,0.02,,---,0.32,VWS V14.01,2013-03-19 19:24:00,
2013-03-19 15:29:00,50.7,24.1,29.69,WNW,289,10.0,18.0,35,0.02,,---,0.32,VWS V14.01,2013-03-19 19:29:00,
2013-03-19 15:34:00,50.2,22.2,29.69,West,265,18.0,19.0,33,0.01,,---,0.32,VWS V14.01,2013-03-19 19:34:00,
2013-03-19 15:39:00,50.7,24.7,29.69,West,281,9.0,22.0,36,0.02,,---,0.33,VWS V14.01,2013-03-19 19:39:00,
2013-03-19 15:44:00,51.1,24.4,29.68,West,275,15.0,15.0,35,0.02,,---,0.33,VWS V14.01,2013-03-19 19:44:00,
2013-03-19 15:49:00,51.7,25.0,29.68,WNW,303,6.0,19.0,35,0.02,,---,0.33,VWS V14.01,2013-03-19 19:49:00,
2013-03-19 15:54:00,51.6,25.5,29.68,WNW,298,10.0,15.0,36,0.01,,---,0.33,VWS V14.01,2013-03-19 19:54:00,
2013-03-19 15:59:00,51.4,21.8,29.68,West,281,13.0,21.0,31,0.01,,---,0.33,VWS V14.01,2013-03-19 19:59:00,
2013-03-19 16:04:00,51.0,20.7,29.68,WNW,302,5.0,21.0,30,0.01,,---,0.33,VWS V14.01,2013-03-19 20:04:00,
2013-03-19 16:09:00,51.4,21.8,29.68,West,279,16.0,22.0,31,0.01,,---,0.33,VWS V14.01,2013-03-19 20:09:00,
2013-03-19 16:14:00,51.4,21.0,29.68,NW,309,9.0,17.0,30,0.01,,---,0.33,VWS V14.01,2013-03-19 20:14:00,
2013-03-19 16:19:00,51.4,20.2,29.68,WNW,293,4.0,20.0,29,0.01,,---,0.33,VWS V14.01,2013-03-19 20:19:00,
2013-03-19 16:24:00,51.1,21.5,29.68,WNW,295,10.0,19.0,31,0.01,,---,0.33,VWS V14.01,2013-03-19 20:24:00,
2013-03-19 16:29:00,50.4,21.7,29.69,NW,306,6.0,18.0,32,0.01,,---,0.33,VWS V14.01,2013-03-19 20:29:00,
2013-03-19 16:34:00,50.7,19.6,29.69,West,279,9.0,20.0,29,0.01,,---,0.33,VWS V14.01,2013-03-19 20:34:00,
2013-03-19 16:39:00,51.0,19.9,29.69,WNW,288,14.0,24.0,29,0.00,,---,0.33,VWS V14.01,2013-03-19 20:39:00,
2013-03-19 16:44:00,50.8,19.7,29.69,NW,314,13.0,20.0,29,0.00,,---,0.33,VWS V14.01,2013-03-19 20:44:00,
2013-03-19 16:49:00,50.5,18.6,29.69,NW,313,9.0,23.0,28,0.00,,---,0.33,VWS V14.01,2013-03-19 20:49:00,
2013-03-19 16:54:00,50.5,17.8,29.69,West,271,10.0,21.0,27,0.00,,---,0.33,VWS V14.01,2013-03-19 20:54:00,
2013-03-19 16:59:00,51.3,19.3,29.69,WNW,291,11.0,19.0,28,0.00,,---,0.33,VWS V14.01,2013-03-19 20:59:00,
2013-03-19 17:04:00,50.2,18.4,29.69,NW,319,9.0,18.0,28,0.00,,---,0.33,VWS V14.01,2013-03-19 21:04:00,
2013-03-19 17:09:00,49.5,18.6,29.69,West,266,9.0,16.0,29,0.00,,---,0.33,VWS V14.01,2013-03-19 21:09:00,
2013-03-19 17:14:00,49.1,17.4,29.70,WNW,297,7.0,17.0,28,0.00,,---,0.33,VWS V14.01,2013-03-19 21:14:00,
2013-03-19 17:19:00,48.9,17.2,29.70,West,279,6.0,19.0,28,0.00,,---,0.33,VWS V14.01,2013-03-19 21:19:00,
2013-03-19 17:24:00,49.1,17.4,29.70,West,271,9.0,18.0,28,0.00,,---,0.33,VWS V14.01,2013-03-19 21:24:00,
2013-03-19 17:29:00,49.2,17.5,29.70,WNW,295,7.0,19.0,28,0.00,,---,0.33,VWS V14.01,2013-03-19 21:29:00,
2013-03-19 17:34:00,49.2,17.5,29.70,WSW,244,13.0,20.0,28,0.00,,---,0.33,VWS V14.01,2013-03-19 21:34:00,
2013-03-19 17:39:00,48.8,18.0,29.70,WNW,282,7.0,15.0,29,0.00,,---,0.33,VWS V14.01,2013-03-19 21:39:00,
2013-03-19 17:44:00,48.5,16.1,29.70,West,270,7.0,14.0,27,0.00,,---,0.33,VWS V14.01,2013-03-19 21:44:00,
2013-03-19 17:49:00,48.2,15.8,29.70,NW,321,10.0,22.0,27,0.00,,---,0.33,VWS V14.01,2013-03-19 21:49:00,
2013-03-19 17:54:00,48.0,14.8,29.70,West,275,9.0,21.0,26,0.00,,---,0.33,VWS V14.01,2013-03-19 21:54:00,
2013-03-19 17:59:00,47.9,14.7,29.72,WNW,283,9.0,15.0,26,0.00,,---,0.33,VWS V14.01,2013-03-19 21:59:00,
2013-03-19 18:04:00,47.7,15.4,29.72,West,272,9.0,13.0,27,0.00,,---,0.33,VWS V14.01,2013-03-19 22:04:00,
2013-03-19 18:09:00,47.6,12.6,29.72,West,271,10.0,29.0,24,0.00,,---,0.33,VWS V14.01,2013-03-19 22:09:00,
2013-03-19 18:14:00,47.4,13.4,29.72,WNW,295,6.0,20.0,25,0.00,,---,0.33,VWS V14.01,2013-03-19 22:14:00,
2013-03-19 18:19:00,47.4,13.4,29.72,West,271,9.0,18.0,25,0.00,,---,0.33,VWS V14.01,2013-03-19 22:19:00,
2013-03-19 18:24:00,47.1,11.2,29.72,NW,309,10.0,18.0,23,0.00,,---,0.33,VWS V14.01,2013-03-19 22:24:00,
2013-03-19 18:29:00,46.5,10.7,29.73,WNW,288,6.0,13.0,23,0.00,,---,0.33,VWS V14.01,2013-03-19 22:29:00,
2013-03-19 18:34:00,46.2,9.5,29.73,WNW,301,10.0,18.0,22,0.00,,---,0.33,VWS V14.01,2013-03-19 22:34:00,
2013-03-19 18:39:00,46.2,8.4,29.73,WNW,302,9.0,22.0,21,0.00,,---,0.33,VWS V14.01,2013-03-19 22:39:00,
2013-03-19 18:44:00,46.2,7.4,29.73,SW,231,8.0,26.0,20,0.00,,---,0.33,VWS V14.01,2013-03-19 22:44:00,
2013-03-19 18:49:00,46.1,7.3,29.73,West,279,9.0,16.0,20,0.00,,---,0.33,VWS V14.01,2013-03-19 22:49:00,
2013-03-19 18:54:00,45.8,8.1,29.73,NW,309,14.0,16.0,21,0.00,,---,0.33,VWS V14.01,2013-03-19 22:54:00,
2013-03-19 18:59:00,45.5,6.8,29.75,WNW,298,15.0,21.0,20,0.00,,---,0.33,VWS V14.01,2013-03-19 22:59:00,
2013-03-19 19:04:00,45.1,7.5,29.75,WSW,257,12.0,23.0,21,0.00,,---,0.33,VWS V14.01,2013-03-19 23:04:00,
2013-03-19 19:09:00,44.8,7.3,29.75,West,279,7.0,28.0,21,0.00,,---,0.33,VWS V14.01,2013-03-19 23:09:00,
2013-03-19 19:14:00,44.3,6.8,29.75,WNW,296,14.0,21.0,21,0.00,,---,0.33,VWS V14.01,2013-03-19 23:14:00,
2013-03-19 19:19:00,44.2,6.8,29.75,West,274,13.0,17.0,21,0.00,,---,0.33,VWS V14.01,2013-03-19 23:19:00,
2013-03-19 19:24:00,43.9,7.5,29.75,WNW,298,9.0,20.0,22,0.00,,---,0.33,VWS V14.01,2013-03-19 23:24:00,
2013-03-19 19:29:00,43.6,7.3,29.76,WNW,298,7.0,20.0,22,0.00,,---,0.33,VWS V14.01,2013-03-19 23:29:00,
2013-03-19 19:34:00,43.3,8.0,29.76,NW,308,5.0,18.0,23,0.00,,---,0.33,VWS V14.01,2013-03-19 23:34:00,
2013-03-19 19:39:00,43.1,7.8,29.76,NW,317,14.0,18.0,23,0.00,,---,0.33,VWS V14.01,2013-03-19 23:39:00,
2013-03-19 19:44:00,42.9,8.6,29.77,West,277,10.0,17.0,24,0.00,,---,0.33,VWS V14.01,2013-03-19 23:44:00,
2013-03-19 19:49:00,42.9,7.7,29.77,WNW,284,12.0,18.0,23,0.00,,---,0.33,VWS V14.01,2013-03-19 23:49:00,
2013-03-19 19:54:00,42.6,8.4,29.77,WNW,288,3.0,15.0,24,0.00,,---,0.33,VWS V14.01,2013-03-19 23:54:00,
2013-03-19 19:59:00,42.3,8.1,29.76,WNW,289,6.0,16.0,24,0.00,,---,0.33,VWS V14.01,2013-03-19 23:59:00,
2013-03-19 20:04:00,42.2,8.0,29.76,WNW,290,6.0,17.0,24,0.00,,---,0.33,VWS V14.01,2013-03-20 00:04:00,
2013-03-19 20:09:00,42.2,9.8,29.76,WNW,288,6.0,18.0,26,0.00,,---,0.33,VWS V14.01,2013-03-20 00:09:00,
2013-03-19 20:14:00,41.8,11.1,29.77,West,277,3.0,16.0,28,0.00,,---,0.33,VWS V14.01,2013-03-20 00:14:00,
2013-03-19 20:19:00,41.3,10.7,29.77,WNW,290,6.0,15.0,28,0.00,,---,0.33,VWS V14.01,2013-03-20 00:19:00,
2013-03-19 20:24:00,41.2,11.4,29.77,WNW,293,2.0,16.0,29,0.00,,---,0.33,VWS V14.01,2013-03-20 00:24:00,
2013-03-19 20:29:00,40.9,12.6,29.78,West,259,3.0,17.0,31,0.00,,---,0.33,VWS V14.01,2013-03-20 00:29:00,
2013-03-19 20:34:00,40.6,12.4,29.78,NW,304,11.0,17.0,31,0.00,,---,0.33,VWS V14.01,2013-03-20 00:34:00,
2013-03-19 20:39:00,40.5,13.7,29.78,West,268,9.0,14.0,33,0.00,,---,0.33,VWS V14.01,2013-03-20 00:39:00,
2013-03-19 20:44:00,40.1,14.0,29.78,West,272,2.0,5.0,34,0.00,,---,0.33,VWS V14.01,2013-03-20 00:44:00,
2013-03-19 20:49:00,39.8,15.0,29.78,West,269,3.0,13.0,36,0.00,,---,0.33,VWS V14.01,2013-03-20 00:49:00,
2013-03-19 20:54:00,39.5,16.0,29.78,West,268,2.0,7.0,38,0.00,,---,0.33,VWS V14.01,2013-03-20 00:54:00,
2013-03-19 20:59:00,39.3,15.8,29.79,West,271,5.0,9.0,38,0.00,,---,0.33,VWS V14.01,2013-03-20 00:59:00,
2013-03-19 21:04:00,39.1,15.6,29.79,WNW,303,1.0,5.0,38,0.00,,---,0.33,VWS V14.01,2013-03-20 01:04:00,
2013-03-19 21:09:00,38.9,16.1,29.79,North,360,5.0,5.0,39,0.00,,---,0.33,VWS V14.01,2013-03-20 01:09:00,
2013-03-19 21:14:00,38.8,17.1,29.80,NW,310,6.0,12.0,41,0.00,,---,0.33,VWS V14.01,2013-03-20 01:14:00,
2013-03-19 21:19:00,38.2,18.2,29.80,NNW,327,4.0,11.0,44,0.00,,---,0.33,VWS V14.01,2013-03-20 01:19:00,
2013-03-19 21:24:00,37.3,18.9,29.80,NNW,340,0.0,6.0,47,0.00,,---,0.33,VWS V14.01,2013-03-20 01:24:00,
2013-03-19 21:29:00,36.6,20.2,29.81,WNW,282,3.0,10.0,51,0.00,,---,0.33,VWS V14.01,2013-03-20 01:29:00,
2013-03-19 21:34:00,36.0,20.5,29.81,NW,307,1.0,11.0,53,0.00,,---,0.33,VWS V14.01,2013-03-20 01:34:00,
2013-03-19 21:39:00,35.8,20.8,29.81,NNW,346,0.0,8.0,54,0.00,,---,0.33,VWS V14.01,2013-03-20 01:39:00,
2013-03-19 21:44:00,35.3,20.8,29.81,North,5,4.0,4.0,55,0.00,,---,0.33,VWS V14.01,2013-03-20 01:44:00,
2013-03-19 21:49:00,35.2,20.7,29.81,NW,321,3.0,6.0,55,0.00,,---,0.33,VWS V14.01,2013-03-20 01:49:00,
2013-03-19 21:54:00,35.0,20.5,29.81,NW,318,4.0,7.0,55,0.00,,---,0.33,VWS V14.01,2013-03-20 01:54:00,
2013-03-19 21:59:00,35.0,20.9,29.81,NW,319,9.0,10.0,56,0.00,,---,0.33,VWS V14.01,2013-03-20 01:59:00,
2013-03-19 22:04:00,34.9,20.8,29.81,NW,309,0.0,7.0,56,0.00,,---,0.33,VWS V14.01,2013-03-20 02:04:00,
2013-03-19 22:09:00,34.7,20.6,29.81,WNW,288,0.0,4.0,56,0.00,,---,0.33,VWS V14.01,2013-03-20 02:09:00,
2013-03-19 22:14:00,34.7,20.6,29.82,NW,309,0.0,6.0,56,0.00,,---,0.33,VWS V14.01,2013-03-20 02:14:00,
2013-03-19 22:19:00,34.7,20.6,29.82,NW,304,10.0,12.0,56,0.00,,---,0.33,VWS V14.01,2013-03-20 02:19:00,
2013-03-19 22:24:00,34.7,20.6,29.82,NW,315,0.0,10.0,56,0.00,,---,0.33,VWS V14.01,2013-03-20 02:24:00,
2013-03-19 22:29:00,34.6,20.5,29.82,NW,308,3.0,6.0,56,0.00,,---,0.33,VWS V14.01,2013-03-20 02:29:00,
2013-03-19 22:34:00,34.4,20.3,29.82,NW,304,3.0,10.0,56,0.00,,---,0.33,VWS V14.01,2013-03-20 02:34:00,
2013-03-19 22:39:00,34.4,19.9,29.82,WNW,290,0.0,9.0,55,0.00,,---,0.33,VWS V14.01,2013-03-20 02:39:00,
2013-03-19 22:44:00,34.4,19.9,29.83,NW,320,6.0,7.0,55,0.00,,---,0.33,VWS V14.01,2013-03-20 02:44:00,
2013-03-19 22:49:00,34.4,19.9,29.83,NW,305,1.0,10.0,55,0.00,,---,0.33,VWS V14.01,2013-03-20 02:49:00,
2013-03-19 22:54:00,34.3,19.8,29.83,WNW,288,3.0,8.0,55,0.00,,---,0.33,VWS V14.01,2013-03-20 02:54:00,
2013-03-19 22:59:00,34.4,19.5,29.83,WNW,298,4.0,9.0,54,0.00,,---,0.33,VWS V14.01,2013-03-20 02:59:00,
2013-03-19 23:04:00,34.6,19.2,29.83,West,269,2.0,14.0,53,0.00,,---,0.33,VWS V14.01,2013-03-20 03:04:00,
2013-03-19 23:09:00,34.9,19.1,29.83,WNW,283,8.0,14.0,52,0.00,,---,0.33,VWS V14.01,2013-03-20 03:09:00,
2013-03-19 23:14:00,34.9,18.6,29.83,West,272,4.0,12.0,51,0.00,,---,0.33,VWS V14.01,2013-03-20 03:14:00,
2013-03-19 23:19:00,34.9,19.1,29.83,WNW,291,4.0,6.0,52,0.00,,---,0.33,VWS V14.01,2013-03-20 03:19:00,
2013-03-19 23:24:00,35.0,18.2,29.83,West,280,8.0,16.0,50,0.00,,---,0.33,VWS V14.01,2013-03-20 03:24:00,
2013-03-19 23:29:00,35.2,18.0,29.83,NW,311,6.0,16.0,49,0.00,,---,0.33,VWS V14.01,2013-03-20 03:29:00,
2013-03-19 23:34:00,35.2,17.0,29.84,NW,311,9.0,19.0,47,0.00,,---,0.33,VWS V14.01,2013-03-20 03:34:00,
2013-03-19 23:39:00,35.3,16.1,29.84,WSW,257,12.0,17.0,45,0.00,,---,0.33,VWS V14.01,2013-03-20 03:39:00,
2013-03-19 23:44:00,35.5,15.8,29.84,WNW,298,5.0,17.0,44,0.00,,---,0.33,VWS V14.01,2013-03-20 03:44:00,
2013-03-19 23:49:00,35.6,15.9,29.84,WNW,283,6.0,16.0,44,0.00,,---,0.33,VWS V14.01,2013-03-20 03:49:00,
2013-03-19 23:54:00,35.5,16.8,29.84,NW,317,4.0,12.0,46,0.00,,---,0.33,VWS V14.01,2013-03-20 03:54:00,
2013-03-19 23:59:00,35.3,17.1,29.84,WNW,284,5.0,16.0,47,0.00,,---,0.33,VWS V14.01,2013-03-20 03:59:00,